Wetbulb
39.40 37.36 32.62 33.76 34.71 34.42 33.39 32.25 31.80 35.75 37.71 34.51 34.62 34.87 38.52 42.03 42.22 42.22 42.50 44.05 45.27 45.75 47.43 48.21 48.45 48.85 48.51 48.80 48.48 48.91 49.39 50.52 52.09 53.23 58.84 61.33 61.85 62.98 63.07 63.04 62.47 62.43 62.84 62.40
37.85 33.12 34.81 35.78 34.89 34.11 33.66 31.95 32.11 34.29 36.58 34.75 34.42 34.34 39.01 41.34 41.51 42.02 42.58 43.95 45.05 45.12 45.90 46.66 47.26 47.69 47.73 47.38 47.61 47.77 48.24 49.02 50.38 52.08 50.20 55.97 61.48 62.62 62.86 63.01 62.19 62.44 61.94 61.67
34.30 34.08 35.18 33.48 33.63 31.71 32.25 31.02 30.09 29.25 33.50 36.69 34.53 34.45 38.14 41.12 41.06 41.91 42.56 44.66 45.18 44.55 44.41 45.23 45.75 46.26 46.75 46.54 46.33 46.68 46.71 47.42 48.45 49.60 50.70 48.45 51.33 61.54 61.64 62.01 61.53 61.51 61.83 61.41
33.38 34.75 32.35 32.53 31.88 31.90 27.45 33.67 31.78 30.61 29.96 27.22 35.05 25.46 35.02 38.10 38.64 40.61 41.50 42.69 44.36 44.39 44.92 44.96 44.31 44.67 45.22 46.19 46.37 46.11 46.02 45.81 47.02 48.03 48.46 48.02 46.70 49.95 60.12 61.20 61.78 61.21 61.26 60.78
31.37 31.50 30.89 31.25 31.41 32.60 29.66 33.47 32.33 32.16 30.02 29.88 31.29 27.12 33.22 38.59 36.34 38.17 40.46 42.80 43.26 43.96 44.04 43.41 43.45 43.16 43.95 45.10 44.93 44.94 44.39 44.12 45.29 46.19 47.24 47.83 46.34 49.14 54.45 60.90 60.56 60.15 60.08 60.20
32.51 34.16 33.65 32.96 33.87 33.15 34.05 34.28 34.00 32.07 30.61 24.58 29.85 28.12 29.89 34.14 35.32 37.32 39.84 41.33 42.19 42.35 42.89 42.14 42.30 41.81 41.16 42.06 42.61 43.22 42.61 42.47 43.68 44.75 46.17 46.89 47.88 47.00 51.88 57.52 58.91 59.11 59.21 59.34
32.18 31.07 33.05 33.15 30.60 33.93 34.47 30.57 26.33 24.73 25.55 24.59 30.13 27.09 30.41 36.43 38.04 38.32 38.45 39.45 40.70 40.95 40.09 39.01 37.97 38.08 37.87 37.79 38.83 40.35 40.50 40.73 42.18 43.53 45.15 45.96 47.39 48.63 51.85 56.82 58.41 57.90 57.42 57.73
27.08 27.18 30.14 31.95 29.73 27.98 29.90 29.42 23.61 17.00 20.62 23.02 29.32 23.15 31.05 38.31 39.65 40.17 39.93 39.14 38.84 38.43 37.66 36.68 35.63 35.60 35.42 35.81 36.41 37.21 38.52 39.23 41.08 42.11 43.83 45.82 47.07 49.70 52.38 56.48 58.49 57.71 56.74 57.01
27.13 27.47 30.85 31.08 31.50 32.05 29.05 27.86 30.45 23.69 25.56 21.33 26.78 31.61 37.02 37.71 37.90 38.51 37.09 36.96 36.24 36.16 35.63 34.21 33.83 34.18 33.84 34.23 35.08 35.44 36.21 37.16 38.75 41.74 43.43 44.46 46.21 48.27 50.78 54.47 55.87 54.96 55.06 53.72
27.87 22.77 29.53 29.88 31.52 33.37 29.87 31.96 24.49 26.13 17.49 16.41 24.72 26.57 29.43 32.89 34.26 35.54 34.69 34.80 35.15 35.40 33.81 32.33 32.15 32.30 32.73 33.95 35.16 35.93 37.11 36.98 37.91 39.53 42.11 44.17 45.78 48.13 48.30 54.70 52.42 49.25 49.61 48.24
29.59 25.10 27.56 28.13 27.94 27.98 28.34 27.94 27.53 26.35 24.33 19.51 17.80 24.84 35.58 33.78 36.18 33.14 33.62 34.90 34.73 33.76 32.04 30.80 30.76 31.18 31.97 33.37 34.01 34.98 36.42 37.03 37.91 39.09 40.57 43.62 45.55 46.91 48.94 46.36 44.02 42.41 41.49 40.82
30.08 26.44 22.58 27.31 29.89 29.95 29.82 28.05 28.00 20.36 20.60 23.96 21.59 21.31 37.15 38.04 37.73 34.76 33.65 34.39 34.34 32.49 30.86 29.41 29.41 29.84 30.14 30.80 31.96 33.58 35.00 36.10 38.35 39.58 40.64 42.14 44.19 41.22 38.72 36.22 36.00 36.64 34.46 35.19
29.67 24.79 21.32 25.39 26.76 28.77 26.55 28.50 28.73 27.05 24.16 18.44 18.19 25.06 39.10 38.40 35.94 34.87 33.39 33.64 32.08 31.07 28.79 28.21 28.22 28.29 28.54 29.27 30.14 32.93 34.14 35.46 37.85 39.22 40.27 38.53 35.52 34.12 33.36 33.87 34.45 33.74 34.08 33.47
30.66 25.22 22.53 23.14 25.86 25.38 23.17 25.97 27.33 24.54 19.46 21.02 22.74 25.40 30.83 32.23 30.56 32.49 33.52 32.35 30.69 29.08 27.29 26.74 26.48 27.24 27.28 28.00 29.18 31.93 33.15 36.53 37.01 35.87 34.69 33.51 33.38 33.38 33.25 33.68 33.83 34.28 34.17 33.36
29.73 21.97 22.38 22.50 24.07 24.78 24.00 23.53 24.69 22.27 21.87 18.69 24.25 22.16 25.11 28.64 31.69 32.03 32.99 31.00 29.31 27.05 25.93 25.39 25.86 26.10 26.10 26.52 27.92 29.97 32.09 32.88 33.66 32.67 32.13 31.74 32.21 32.76 32.60 32.53 32.38 32.47 32.17 31.62
30.19 22.72 22.25 17.56 23.01 22.96 21.08 24.66 25.19 24.15 24.03 23.52 23.80 22.56 32.44 35.87 33.63 32.63 31.14 29.47 27.37 25.91 25.23 25.20 25.90 25.40 25.16 25.57 26.21 27.47 28.98 30.88 32.32 31.71 31.24 31.50 31.27 30.91 30.34 30.26 29.67 29.98 29.56 29.72
26.17 23.90 19.72 20.19 20.66 20.78 19.04 24.71 25.83 25.58 26.14 24.71 22.24 31.31 34.31 31.37 30.17 32.35 29.85 28.98 27.38 25.54 25.29 24.71 25.04 25.01 25.36 25.63 26.56 26.06 27.25 28.51 28.13 28.43 28.65 29.10 28.86 28.63 28.85 29.48 29.00 28.76 28.48 28.90
25.05 22.15 21.37 18.76 19.25 20.54 29.16 32.02 31.62 28.40 30.65 29.78 29.38 30.63 33.10 31.35 34.11 32.14 31.74 29.53 27.98 26.43 25.25 24.93 25.02 25.47 26.24 26.99 26.74 27.44 27.37 26.79 26.48 26.42 26.97 27.86 28.13 27.73 28.50 28.52 28.24 28.55 28.43 28.10
28.24 24.63 20.04 15.95 16.82 25.09 29.58 28.12 26.98 25.44 29.46 34.41 31.68 33.37 33.02 34.77 36.92 32.99 32.09 31.47 29.26 27.77 26.84 25.84 26.05 26.49 26.83 27.11 27.74 27.28 26.89 26.76 26.13 25.85 26.40 27.21 27.72 27.30 27.48 27.15 27.64 28.03 27.84 28.06
27.36 26.62 21.07 14.59 15.09 19.34 29.32 31.45 34.00 33.17 24.72 34.93 35.39 32.60 30.56 34.18 31.13 33.31 31.11 31.94 30.14 28.85 27.79 26.51 26.34 26.14 26.57 27.33 28.06 27.13 26.92 26.81 26.57 27.18 27.49 28.26 28.24 27.66 27.24 27.73 27.61 28.07 28.39 28.10
20.37 20.17 17.05 17.72 16.84 23.01 31.43 31.85 33.86 23.32 28.99 34.35 33.57 31.31 31.95 31.90 33.01 31.62 32.22 31.57 30.88 29.41 27.63 28.61 26.57 25.44 26.39 27.42 27.05 25.65 26.48 26.31 28.18 28.91 29.11 28.92 29.11 28.50 28.58 28.28 28.36 27.94 27.46 26.87
19.07 18.09 16.20 18.79 15.68 16.29 30.43 29.68 27.47 33.51 34.02 33.73 32.54 32.10 33.39 35.10 34.04 32.64 31.69 31.03 29.14 27.47 27.03 28.40 26.93 25.25 26.44 28.35 27.04 25.28 24.63 26.67 27.33 27.13 26.81 27.16 27.75 28.14 27.83 26.98 26.94 26.79 26.11 25.09
19.78 26.75 23.97 22.60 23.94 31.84 31.56 33.93 35.08 35.55 34.40 32.60 32.97 32.68 34.69 35.26 34.41 33.27 32.12 31.22 29.49 27.89 27.69 27.49 27.95 26.96 26.82 26.92 27.87 25.25 26.48 27.15 26.38 25.64 25.14 25.64 26.08 26.56 26.86 26.08 25.46 25.29 25.59 24.77
23.14 29.45 23.60 22.14 30.95 29.20 30.88 32.59 33.28 34.83 34.39 35.01 34.25 33.80 35.34 35.42 34.80 33.06 31.90 30.31 28.84 26.58 25.83 25.80 26.18 25.05 23.97 25.56 25.56 25.75 26.62 27.64 26.56 25.08 24.88 25.14 24.79 24.92 25.50 26.04 26.00 25.76 24.89 24.25
27.39 25.38 24.63 23.72 27.53 29.86 31.48 31.85 33.44 33.59 33.85 33.70 33.33 33.32 34.56 36.04 33.71 33.40 31.45 29.76 27.96 25.96 25.15 25.12 24.31 23.45 22.61 23.86 23.61 24.02 24.51 24.63 23.80 23.44 23.76 24.15 24.41 24.03 23.21 23.91 24.43 23.83 24.81 26.62
25.69 25.77 25.20 27.78 32.79 32.78 31.88 32.75 31.82 31.92 30.93 31.08 30.94 30.97 33.94 35.26 34.25 32.85 31.38 30.80 27.58 25.75 24.92 24.14 23.31 23.09 22.55 22.49 21.75 21.90 21.97 23.02 23.57 24.06 24.25 24.12 24.09 24.07 23.98 23.95 23.91 26.67 26.43 26.70
MSLP
1015.46 1015.08 1015.81 1016.51 1016.73 1016.75 1016.42 1015.53 1014.23 1013.21 1013.00 1012.89 1011.46 1009.96 1008.16 1007.14 1006.86 1006.81 1006.98 1007.29 1007.49 1007.79 1008.11 1008.05 1008.10 1008.09 1008.07 1007.81 1007.63 1007.30 1006.83 1006.41 1005.88 1005.76 1005.19 1004.60 1003.84 1004.01 1004.53 1004.58 1005.66 1005.97 1006.61 1007.64
1015.66 1016.21 1017.37 1017.64 1017.50 1017.20 1016.50 1015.49 1014.38 1013.52 1013.22 1013.36 1011.36 1009.09 1007.61 1006.68 1006.64 1006.85 1006.97 1007.15 1007.49 1007.82 1007.93 1007.96 1008.01 1008.07 1007.89 1007.62 1007.34 1007.08 1006.68 1006.26 1005.85 1005.38 1005.48 1004.80 1003.77 1002.97 1003.47 1003.57 1004.28 1005.61 1005.21 1006.75
1016.26 1017.57 1018.00 1018.05 1017.58 1017.40 1016.65 1015.86 1015.33 1015.04 1013.73 1012.68 1011.81 1008.30 1006.25 1006.02 1006.80 1007.09 1007.42 1007.62 1007.92 1007.95 1007.91 1008.00 1008.05 1007.99 1007.63 1007.32 1007.21 1006.86 1006.61 1006.15 1005.71 1005.33 1004.79 1004.68 1003.91 1002.89 1001.91 1003.05 1002.95 1003.86 1004.81 1005.46
1017.32 1017.94 1018.34 1018.30 1017.93 1018.11 1016.89 1016.44 1016.07 1015.42 1014.66 1013.05 1012.47 1009.78 1007.13 1006.36 1006.59 1006.52 1007.01 1007.49 1007.75 1007.92 1008.18 1008.26 1008.22 1007.87 1007.48 1006.83 1006.75 1006.56 1006.23 1005.90 1005.32 1004.98 1004.56 1004.23 1004.17 1003.41 1001.39 1001.68 1001.66 1002.72 1003.99 1004.74
1018.13 1018.20 1018.30 1018.40 1018.42 1018.68 1017.47 1016.78 1016.26 1015.64 1014.98 1014.11 1012.11 1011.52 1007.49 1006.40 1006.22 1006.55 1007.06 1007.38 1007.96 1008.28 1008.50 1008.37 1007.91 1007.59 1007.06 1006.67 1006.33 1006.27 1006.00 1005.46 1004.99 1004.51 1004.17 1003.74 1003.38 1002.84 1002.09 1001.33 1001.04 1001.61 1002.93 1003.74
1018.30 1019.10 1019.05 1018.83 1018.77 1018.80 1018.22 1016.67 1015.61 1015.62 1015.19 1014.09 1012.28 1011.72 1008.16 1007.05 1007.40 1007.35 1007.63 1008.16 1008.43 1008.70 1008.46 1008.24 1008.03 1007.76 1007.33 1007.05 1006.45 1005.96 1005.51 1004.96 1004.64 1004.10 1003.51 1003.16 1002.71 1002.38 1001.88 1000.84 999.20 1000.22 1001.98 1003.02
1018.21 1018.72 1019.24 1019.40 1018.90 1018.54 1018.20 1017.21 1016.01 1015.76 1015.05 1013.53 1012.77 1011.69 1008.69 1007.80 1007.80 1008.36 1008.58 1008.83 1009.10 1008.98 1008.64 1008.41 1008.23 1007.82 1007.36 1007.11 1006.61 1005.85 1005.17 1004.42 1004.17 1003.55 1002.95 1002.70 1002.25 1001.81 1001.03 1000.53 1000.24 1000.44 1001.29 1002.48
1018.85 1018.48 1019.23 1019.73 1019.76 1019.66 1019.33 1019.31 1018.71 1017.91 1015.98 1014.13 1012.82 1010.90 1008.33 1008.04 1008.57 1008.88 1009.46 1009.88 1009.76 1009.31 1009.17 1008.89 1008.57 1008.09 1007.55 1006.96 1006.34 1005.75 1004.92 1004.02 1003.62 1003.02 1002.42 1002.20 1001.89 1001.48 1000.72 1000.31 999.80 999.90 1001.04 1001.92
1019.79 1019.10 1019.48 1019.92 1020.22 1020.38 1019.91 1019.83 1020.04 1019.39 1017.46 1015.91 1012.23 1009.93 1008.06 1008.28 1008.25 1008.87 1009.67 1009.98 1009.95 1009.78 1009.68 1009.20 1008.74 1008.18 1007.53 1006.74 1005.96 1005.24 1004.53 1003.78 1003.23 1002.42 1001.85 1001.67 1001.30 1000.93 1000.54 999.78 1000.08 999.95 1000.69 1001.63
1021.10 1020.67 1019.74 1020.04 1020.53 1020.58 1020.58 1020.84 1020.42 1020.10 1018.30 1015.62 1012.11 1010.24 1008.06 1008.08 1008.43 1009.23 1009.49 1010.14 1010.23 1010.18 1009.95 1009.55 1009.01 1008.30 1007.52 1006.50 1005.49 1004.69 1003.81 1003.12 1002.63 1002.14 1001.47 1001.14 1000.80 1000.43 1000.27 999.79 999.98 1001.15 1001.58 1002.08
1021.74 1022.10 1020.40 1020.22 1019.86 1019.53 1020.51 1020.71 1020.91 1020.64 1019.53 1017.52 1014.14 1010.29 1008.90 1008.97 1008.95 1009.60 1010.11 1010.81 1010.75 1010.59 1010.25 1009.81 1009.25 1008.52 1007.41 1006.22 1005.09 1004.19 1003.17 1002.32 1001.77 1001.38 1001.06 1000.71 1000.53 1000.28 999.78 999.92 1000.77 1001.60 1001.95 1002.84
1022.55 1022.69 1021.10 1019.61 1019.85 1020.11 1020.12 1020.33 1020.57 1020.63 1019.64 1018.54 1016.90 1011.94 1009.62 1009.14 1009.66 1010.66 1011.21 1011.42 1011.51 1011.38 1010.85 1010.37 1009.59 1008.54 1007.35 1006.12 1004.81 1003.54 1002.45 1001.66 1001.09 1000.82 1000.75 1000.56 1000.52 1000.43 1000.20 1000.81 1001.55 1002.15 1003.25 1003.92
1023.27 1023.15 1021.96 1020.33 1020.59 1020.45 1020.16 1020.07 1020.45 1020.97 1021.08 1019.19 1017.56 1011.53 1009.48 1009.90 1010.62 1011.52 1011.88 1011.91 1011.95 1011.66 1011.29 1010.71 1009.78 1008.68 1007.51 1006.17 1004.69 1003.05 1001.80 1000.95 1000.74 1000.50 1000.62 1000.93 1001.08 1001.15 1001.23 1002.07 1002.70 1003.35 1004.13 1005.14
1023.72 1023.40 1022.61 1021.52 1020.25 1020.28 1019.96 1019.79 1020.05 1020.89 1020.67 1018.79 1016.19 1012.63 1011.41 1011.56 1011.89 1012.20 1012.42 1012.44 1012.37 1012.21 1011.78 1011.15 1010.18 1009.19 1008.08 1006.68 1005.10 1003.43 1002.08 1000.96 1000.88 1000.93 1001.29 1001.68 1001.96 1002.38 1002.45 1003.14 1003.59 1004.27 1005.21 1005.90
1023.87 1023.54 1022.93 1021.84 1020.99 1020.45 1019.43 1019.16 1019.45 1019.56 1019.32 1019.05 1014.88 1015.02 1013.26 1013.21 1013.04 1013.09 1013.21 1013.04 1012.71 1012.49 1012.09 1011.58 1010.74 1009.82 1008.73 1007.38 1005.97 1004.56 1003.34 1002.58 1002.10 1001.86 1002.09 1002.58 1003.08 1003.57 1003.70 1004.51 1004.88 1005.74 1006.30 1007.16
1024.08 1023.70 1023.36 1021.57 1020.50 1020.01 1018.68 1017.84 1017.86 1018.23 1018.48 1017.86 1016.71 1015.37 1013.68 1013.46 1013.46 1013.61 1013.86 1013.72 1013.34 1013.17 1012.80 1012.25 1011.53 1010.60 1009.52 1008.45 1007.29 1006.12 1005.02 1004.15 1003.43 1003.20 1003.38 1003.71 1004.20 1004.67 1005.15 1005.77 1006.30 1007.25 1007.71 1008.47
1024.19 1024.25 1024.06 1021.66 1020.59 1019.45 1017.27 1014.75 1015.31 1015.86 1016.15 1016.27 1015.71 1013.72 1013.29 1013.43 1013.85 1014.37 1014.66 1014.56 1014.16 1013.89 1013.49 1012.99 1012.26 1011.47 1010.60 1009.60 1008.66 1007.64 1006.75 1005.90 1005.21 1005.00 1005.18 1005.36 1005.56 1006.17 1006.29 1007.45 1007.15 1008.98 1009.09 1009.99
1024.03 1024.68 1024.52 1022.54 1020.58 1018.17 1014.55 1014.00 1013.84 1014.28 1014.18 1014.58 1014.15 1013.56 1013.79 1013.85 1013.91 1014.68 1015.33 1015.23 1014.77 1014.50 1014.09 1013.70 1013.06 1012.29 1011.55 1010.63 1009.78 1008.87 1008.10 1007.53 1007.13 1006.92 1006.83 1007.13 1007.19 1007.06 1008.35 1008.45 1008.74 1010.45 1010.10 1011.79
1024.38 1024.51 1024.38 1023.59 1021.16 1016.72 1013.22 1013.37 1013.59 1013.69 1012.64 1012.45 1012.96 1013.23 1013.30 1013.47 1013.22 1014.67 1015.37 1015.61 1015.58 1015.29 1014.91 1014.49 1013.91 1013.15 1012.48 1011.55 1010.90 1010.14 1009.62 1009.19 1008.61 1008.54 1008.66 1008.78 1008.71 1008.97 1009.49 1010.25 1011.16 1010.88 1011.59 1013.30
1024.57 1024.67 1024.64 1023.83 1021.25 1017.15 1013.10 1013.22 1013.34 1013.39 1012.48 1011.84 1012.42 1012.88 1013.30 1013.63 1013.59 1014.87 1015.50 1015.79 1015.78 1015.72 1015.46 1015.01 1014.47 1013.94 1013.28 1012.68 1011.99 1011.32 1010.93 1010.60 1010.45 1010.49 1010.44 1010.43 1010.36 1010.51 1010.94 1011.79 1012.10 1012.34 1013.39 1014.47
1023.95 1024.25 1023.74 1022.57 1020.55 1016.30 1013.03 1013.29 1013.42 1013.22 1011.98 1011.76 1012.31 1012.85 1013.37 1013.91 1014.75 1015.35 1015.74 1016.06 1016.21 1016.13 1015.91 1015.54 1015.19 1014.64 1014.27 1013.80 1013.17 1012.67 1012.42 1012.13 1012.20 1012.03 1011.96 1012.01 1012.10 1012.22 1012.57 1013.08 1013.58 1013.93 1014.88 1015.87
1020.93 1021.58 1021.49 1021.02 1019.51 1015.32 1012.92 1013.52 1012.85 1011.37 1011.40 1011.74 1012.24 1012.66 1013.19 1013.69 1014.43 1015.13 1015.68 1016.17 1016.34 1016.33 1016.10 1015.94 1015.73 1015.48 1015.18 1014.66 1014.25 1013.96 1013.92 1014.01 1013.68 1013.47 1013.44 1013.53 1013.68 1013.89 1014.25 1014.42 1015.14 1015.70 1016.17 1016.66
1019.13 1017.38 1017.68 1017.29 1014.21 1012.18 1012.08 1010.98 1010.87 1011.12 1011.36 1011.95 1012.20 1012.71 1013.12 1013.48 1014.00 1014.72 1015.38 1015.92 1016.33 1016.60 1016.70 1016.52 1016.27 1016.24 1016.07 1015.86 1015.47 1015.27 1015.50 1015.20 1015.00 1014.87 1015.01 1015.09 1015.20 1015.45 1015.70 1015.83 1016.27 1016.68 1017.25 1017.68
1016.86 1016.27 1016.26 1015.55 1011.32 1011.29 1011.51 1011.07 1011.18 1011.31 1011.51 1011.76 1012.15 1012.51 1012.91 1013.18 1013.85 1014.50 1015.22 1015.84 1016.27 1016.73 1016.98 1017.11 1016.85 1016.78 1016.77 1016.74 1016.69 1016.71 1016.58 1016.37 1016.17 1016.15 1016.34 1016.47 1016.52 1016.84 1017.10 1017.24 1017.42 1017.73 1018.10 1018.32
1015.12 1015.53 1014.49 1013.12 1011.29 1010.83 1010.29 1010.26 1010.38 1010.79 1011.45 1011.89 1012.27 1012.54 1012.79 1013.23 1013.97 1014.50 1015.13 1015.74 1016.29 1016.78 1017.15 1017.39 1017.53 1017.44 1017.39 1017.40 1017.43 1017.47 1017.41 1017.18 1017.03 1017.11 1017.24 1017.37 1017.60 1017.83 1018.07 1018.27 1018.53 1018.77 1018.92 1018.96
1013.42 1012.46 1012.41 1009.79 1009.33 1009.66 1009.51 1009.81 1010.18 1010.70 1011.18 1011.64 1012.24 1012.71 1012.98 1013.31 1013.88 1014.49 1015.15 1015.68 1016.27 1016.81 1017.25 1017.50 1017.66 1017.88 1017.99 1017.99 1018.02 1018.02 1017.90 1017.70 1017.67 1017.75 1017.88 1018.00 1018.12 1018.33 1018.54 1018.76 1019.05 1019.21 1019.33 1019.40
Wind_Speed
4 4 7 9 8 5 8 13 18 16 15 11 14 26 22 18 9 8 5 6 7 6 7 8 9 12 13 14 14 15 15 16 13 7 10 13 13 11 14 16 19 20 17 20
4 6 5 5 4 7 11 17 15 10 18 17 19 29 23 10 7 5 8 8 9 9 10 12 12 14 16 16 17 16 15 16 13 9 6 8 9 13 9 12 16 13 18 19
4 4 4 4 6 9 14 11 14 18 25 15 12 17 2 5 4 6 10 10 10 12 13 16 17 20 20 19 19 17 17 17 15 16 9 7 11 12 10 13 14 17 19 18
3 3 4 5 6 6 11 5 14 18 15 6 10 9 14 3 6 10 7 10 11 13 17 18 23 24 23 20 17 17 17 19 16 17 13 12 9 12 10 12 15 15 20 20
4 3 4 4 5 7 9 17 18 15 11 11 2 5 7 13 8 14 16 10 13 16 20 24 25 24 24 18 16 17 20 20 20 18 16 12 10 10 11 13 15 17 16 19
3 1 1 3 11 7 14 16 10 4 5 5 1 3 10 6 14 18 18 16 18 24 25 26 24 23 22 22 21 19 20 20 20 19 17 17 16 12 12 11 8 12 13 14
2 3 2 1 9 3 13 12 4 3 3 4 2 10 11 14 14 11 15 22 25 25 24 21 23 23 21 21 21 19 20 20 19 19 17 16 15 14 14 12 11 11 8 10
4 1 3 2 2 5 6 5 3 6 7 12 15 9 6 15 7 9 22 23 24 22 20 23 23 22 20 20 19 20 20 20 18 18 17 14 14 10 9 8 11 10 10 10
3 3 4 2 1 3 2 1 3 5 9 7 7 11 17 1 13 20 23 24 22 19 22 23 20 20 20 19 20 18 19 19 19 18 14 14 13 13 10 8 7 10 11 9
3 6 3 4 3 3 1 4 3 3 7 9 6 13 10 14 21 20 24 25 23 24 24 20 19 20 19 20 19 18 18 17 17 17 15 12 12 11 10 9 10 4 4 9
3 1 3 1 7 1 4 3 3 2 5 5 9 9 10 12 18 22 26 24 21 22 22 20 20 20 20 18 17 16 16 15 13 13 13 12 11 9 4 7 7 9 10 8
2 2 6 2 2 2 4 4 4 3 2 7 8 13 10 14 20 22 25 21 17 21 21 20 20 19 19 19 17 16 13 12 11 9 9 9 1 2 8 9 9 11 11 10
5 3 6 4 3 3 4 9 8 1 2 10 5 11 14 20 23 22 22 19 20 20 22 19 19 18 19 19 18 13 12 11 9 7 4 4 6 7 12 10 12 13 14 12
4 3 6 7 5 3 6 8 9 8 5 6 15 24 25 20 24 21 20 21 20 18 20 18 18 19 18 18 17 14 12 9 5 9 9 9 9 9 12 11 14 14 13 14
4 5 5 12 19 17 18 19 17 18 15 9 17 15 26 23 16 17 18 21 20 20 20 19 19 18 18 18 17 15 12 10 8 11 12 12 12 11 13 13 15 14 15 15
5 3 5 7 4 7 14 17 16 17 16 20 25 29 25 12 14 17 19 21 20 20 19 18 18 18 18 18 16 15 14 12 11 13 13 14 14 15 16 16 17 16 17 17
6 3 2 6 5 14 10 10 14 8 10 8 9 9 9 15 15 13 17 19 18 18 18 18 18 16 16 16 14 14 12 12 14 14 14 13 15 15 18 14 18 15 17 18
6 3 1 7 7 4 2 2 3 11 9 17 14 15 13 7 10 3 10 15 18 17 16 15 14 14 15 14 13 12 12 13 14 15 15 14 15 18 16 17 20 15 19 15
5 3 3 4 3 12 4 4 6 7 6 8 15 12 10 12 12 4 10 12 13 14 13 11 12 13 13 13 12 11 12 12 14 15 15 14 15 17 17 17 16 16 18 14
5 4 4 3 3 6 3 6 2 2 7 7 6 6 7 9 6 4 9 11 12 13 12 11 11 11 13 13 12 12 12 13 14 13 13 14 15 17 17 15 15 16 15 14
6 5 10 8 6 12 7 8 5 1 1 7 5 4 3 2 3 4 6 8 8 9 11 11 10 10 11 11 12 14 13 14 12 12 13 14 14 15 15 15 14 14 14 13
12 11 7 6 6 12 11 7 8 1 2 5 7 6 5 4 3 2 4 5 7 9 10 11 8 10 10 9 10 13 14 12 12 13 14 14 14 11 11 14 12 12 12 12
7 8 6 13 10 2 17 1 8 2 4 5 8 6 6 5 5 3 2 3 4 6 7 7 7 9 10 11 10 12 9 9 11 13 14 14 14 13 11 12 11 9 9 8
8 10 6 1 8 20 16 14 13 9 9 6 5 8 8 7 6 5 4 2 0 2 4 5 5 8 9 9 10 9 8 7 9 11 10 9 10 10 8 6 6 6 5 6
2 12 7 9 16 16 18 15 13 13 12 8 8 7 10 7 7 6 5 4 3 1 1 2 3 4 5 5 6 6 6 5 8 8 8 8 7 8 7 7 5 5 4 3
10 10 9 9 8 6 3 1 2 10 11 11 10 8 6 6 6 7 5 4 4 3 2 2 2 2 2 3 4 4 4 4 5 6 5 4 4 4 4 5 6 10 8 7
Wind_Direction
29 40 27 11 13 339 307 300 301 302 328 309 286 296 298 299 289 271 260 248 257 273 297 304 316 322 323 318 313 308 300 293 282 292 284 239 225 214 201 191 195 190 190 185
201 59 25 334 337 315 302 300 311 305 325 319 300 294 293 277 266 282 290 267 269 286 294 304 309 322 317 316 311 303 297 294 289 281 274 299 264 217 212 203 178 189 193 186
44 68 346 332 329 327 313 297 326 311 320 300 312 286 267 274 229 264 275 278 285 280 301 316 317 316 314 307 308 298 297 291 287 284 278 290 289 255 200 210 180 181 185 184
50 83 350 331 307 322 306 347 312 310 317 306 359 295 315 332 272 300 296 276 277 307 319 316 317 311 311 303 301 290 290 290 285 282 279 268 267 269 251 201 197 183 186 185
59 356 1 304 315 328 282 317 301 296 291 308 141 257 283 292 311 344 336 314 303 316 322 313 309 311 307 305 297 300 293 287 281 276 272 271 263 269 272 240 204 180 183 181
58 99 254 333 309 288 294 302 310 267 282 256 286 280 286 345 336 328 334 330 323 317 312 311 312 314 310 305 299 292 287 283 280 277 270 266 267 267 256 258 188 176 178 185
248 169 124 336 307 194 349 338 346 290 245 294 120 295 259 313 335 336 328 328 319 319 314 316 313 309 306 302 298 293 285 280 279 276 273 270 265 266 258 262 206 173 174 186
344 249 202 103 34 314 4 7 28 304 316 303 300 239 272 340 2 329 336 324 320 317 321 315 312 308 306 301 295 295 289 283 276 273 271 269 265 259 259 227 201 180 178 189
311 246 129 139 324 270 62 348 354 274 250 265 243 274 284 97 329 334 331 327 319 321 323 318 315 309 307 301 295 288 283 280 282 275 268 268 266 256 263 194 245 172 168 175
85 291 164 111 235 200 284 348 233 181 301 297 272 307 299 337 330 338 338 330 326 324 324 321 320 315 311 305 300 293 278 271 266 268 269 263 263 263 280 193 151 95 154 143
109 286 142 204 205 200 164 183 220 280 266 294 309 298 351 316 339 342 339 330 323 325 326 329 323 318 312 310 307 296 287 272 261 255 258 259 258 269 225 109 105 115 106 86
104 293 269 270 136 325 249 233 192 233 242 251 284 270 277 326 346 341 335 320 328 328 333 330 325 321 321 320 314 300 286 274 260 248 253 259 171 96 88 96 90 93 92 88
171 207 297 202 182 165 230 202 225 237 283 241 272 271 325 326 336 335 331 331 334 333 336 334 331 332 332 328 321 318 305 262 256 243 239 77 76 81 94 93 96 92 94 93
167 238 241 261 337 12 240 233 221 183 239 268 242 276 297 318 325 333 333 336 336 339 339 337 337 340 336 335 336 340 349 32 68 85 80 76 73 81 91 95 93 97 100 98
227 254 228 258 272 278 272 263 249 235 222 236 276 308 295 307 317 335 334 336 338 343 344 343 342 342 342 344 347 354 10 24 52 76 81 79 79 81 84 87 86 88 90 87
212 272 319 284 271 261 272 260 240 236 241 254 263 276 279 317 333 342 343 338 341 345 344 344 345 346 349 350 354 359 13 24 51 67 75 82 82 83 84 81 88 85 88 87
179 255 309 272 348 309 273 253 209 200 204 206 227 250 336 329 329 337 342 341 342 343 344 348 349 350 352 354 357 8 17 32 48 61 66 73 86 86 82 88 90 83 88 89
162 171 259 288 318 265 41 180 182 218 246 216 262 276 298 303 296 81 358 342 342 345 345 350 349 355 358 356 5 18 30 43 53 56 62 69 77 83 90 84 82 99 84 86
157 170 241 287 284 299 264 185 195 198 288 229 233 267 306 322 304 140 9 353 345 345 344 350 353 359 1 5 10 27 39 51 60 63 66 68 73 82 85 89 91 90 89 89
204 229 250 181 245 262 55 144 122 136 275 162 207 285 313 341 355 11 353 346 348 353 350 358 1 10 14 13 21 35 44 53 58 63 71 79 86 83 82 87 88 87 89 90
167 199 227 211 258 276 245 147 140 207 208 157 188 238 267 303 232 319 326 346 350 357 359 1 7 21 17 19 33 40 43 47 53 63 67 70 74 81 86 87 84 87 89 96
175 171 196 179 219 270 152 127 201 107 123 155 182 197 221 232 234 240 297 339 357 353 1 8 20 18 14 24 37 49 42 39 49 57 61 62 65 67 73 79 83 91 95 93
221 209 189 202 217 113 192 268 210 209 180 193 188 186 213 214 214 207 230 327 16 13 4 1 24 38 29 23 38 55 37 50 64 63 60 63 66 64 67 76 79 80 86 93
233 210 238 160 235 239 230 245 239 231 221 180 193 179 198 224 192 191 185 208 325 37 22 357 24 44 43 37 44 37 36 38 61 67 64 63 70 71 70 74 78 94 101 105
142 151 201 259 279 277 255 237 240 232 224 213 200 206 212 205 193 190 182 178 183 141 65 35 26 49 50 43 48 35 27 46 74 73 72 74 72 74 73 63 65 75 46 108
185 182 191 231 203 227 250 179 156 224 219 211 201 189 199 191 190 178 174 167 167 171 161 140 106 76 55 55 53 38 26 33 82 85 75 76 81 78 81 88 84 73 84 86